Zurück zum Katalog

DELTA 1 DEB

AktivSSO
NORAD 6214·DEBRIS·🇺🇸 United States

Gestartet Feb 28, 1966 von Cape Canaveral Space Force Station

Loading…

Nächste Überflüge (nächste 24 Stunden)

TLE

AktuellSource: Space-Track

Epoche: Sep 14, 2026, 12:18 UTC

1 06214U 66016E   26257.51264740  .00000027  00000-0  39826-3 0  9993
2 06214 101.7677 257.8844 0119540 347.9228 163.6333 12.62822168786191

Verfolge DELTA 1 DEB in Echtzeit mit AllMySat

Download on the App Store